Find Starlink 11156

NORAD ID: 61056 Int'l Des: 2024-164 Owner: SPXS Country: US Constellation: starlink operational
LEOCIRCULAR

現在のビュー

3D地球を読み込み中...

About Starlink 11156

Starlink 11156 (NORAD 61056) is a starlink constellation satellite (v2 mini d2c) launched Sep 13, 2024 by SPXS of US. It operates in LEO, CIRCULAR orbit with a mass of 960.00 kg.

Starlink 11156について

説明を読み込み中...

次回通過

Passes for default location (London). Set your location on the main map for personalized predictions.

高度履歴

Loading altitude history...

軌道要素

1 61056U 24164G 26171.37682441 -.00001758 00000-0 -10083-4 0 9996
2 61056 53.1596 164.5713 0001422 112.1106 248.0062 15.68815936101553
Epoch: Jun 20, 2026 • Age: 37 hours

現在のステータス

高度 373.6 km
速度 7.68 km/s
衛星直下点 -33.18°S, 105.5°W
打ち上げ日 Sep 13, 2024
運用期間 1.7 years
タイプ internet

技術仕様

分類 Payload
質量 960.00 kg
乾燥質量 910.00 kg
総質量 960.00 kg
長さ 0.30 m
直径 4.10 m
スパン 29.00 m
形状 Box + pan
製造者 SPXS
バスタイプ Starlink V2MD
フェーズステータス In Orbit
所有者/国 SPXS/US

Most Searched